Location: Marcé
(47.5801°N, 0.3280°W)
Time: 00:01:46
(UTC+02:00)

ACS3 Solar Sail - Pass Details

Date: 25 June 2024
Orbit: 992 x 1023 km, 97.4° (Epoch: 12 July)

Event Time Altitude Azimuth Distance (km) Brightness Sun altitude
Exits shadow 00:25:15 - 204° (SSW) 2,861 6.9 -15.6°
Reaches altitude 10° 00:25:33 10° 205° (SSW) 2,760 6.8 -15.7°
Maximum altitude 00:31:04 33° 268° (W) 1,619 6.1 -16.0°
Drops below altitude 10° 00:36:36 10° 331° (NNW) 2,767 8.5 -16.4°
Sets 00:39:23 0° 341° (NNW) 3,720 9.7 -16.5°
